Weather History for KTIW - November, 2013

Change the Weather History Date:

Thursday, November 28, 2013

  Actual Average Record
Temperature  
Mean Temperature 42 °F -  
Max Temperature 48 °F 46 °F 54 °F (2014)
Min Temperature 37 °F 38 °F 21 °F (2006)
Degree Days  
Heating Degree Days 22    
Moisture  
Dew Point 39 °F    
Average Humidity 91    
Maximum Humidity 100    
Minimum Humidity 69    
Precipitation  
Precipitation 0.00 in - - ()
Sea Level Pressure  
Sea Level Pressure 30.12 in    
Wind  
Wind Speed 0 mph (SW)    
Max Wind Speed 5 mph    
Max Gust Speed -    
Visibility 2 miles    
Events Fog    
Averages and records for this station are not official NWS values.
T = Trace of Precipitation, MM = Missing Value Source: NWS Daily Summary

Daily Weather History Graph

Daily Weather History Graph

Search for Another Location

Airport or City:

Trip Planner

Search our weather history database for the weather conditions in past years. The results will help you decide how hot, cold, wet, or windy it might be!

Date:

Astronomy

Nov. 28, 2013 Rise Set
Actual Time 7:33 AM PST 4:23 PM PST
Civil Twilight 6:58 AM PST 4:58 PM PST
Nautical Twilight 6:20 AM PST 5:36 PM PST
Astronomical Twilight 5:43 AM PST 6:13 PM PST
Moon 2:23 AM PST (11/28) 1:51 PM PST (11/28)
Length of Visible Light 9h 59m
Length of Day
8h 50m
Waning Crescent, 21% of the Moon is Illuminated
Nov 28
Waning Crescent
Dec 2
New
Dec 9
First Quarter
Dec 17
Full
Dec 25
Last Quarter

Hourly Weather History & Observations

Time (PST) Temp. Windchill Dew Point Humidity Pressure Visibility Wind Dir Wind Speed Gust Speed Precip Events Conditions
12:01 AM 42.8 °F - 39.2 °F 87% 30.03 in 0.2 mi Calm Calm - N/A Fog Fog
12:53 AM 41.0 °F - 39.0 °F 93% 30.04 in 0.2 mi Calm Calm - N/A Fog Fog
1:08 AM 39.2 °F - 37.4 °F 93% 30.04 in 0.2 mi Calm Calm - N/A Fog Fog
1:39 AM 39.2 °F - 39.2 °F 100% 30.03 in 0.2 mi Calm Calm - N/A Fog Fog
1:53 AM 39.9 °F - 39.0 °F 97% 30.04 in 0.2 mi Calm Calm - N/A Fog Fog
2:53 AM 39.0 °F - 37.0 °F 93% 30.06 in 0.2 mi Calm Calm - N/A Fog Fog
3:53 AM 39.9 °F - 39.0 °F 97% 30.05 in 0.2 mi Calm Calm - N/A Fog Fog
4:53 AM 39.0 °F - 37.9 °F 96% 30.06 in 0.2 mi Calm Calm - N/A Fog Fog
5:53 AM 39.9 °F - 39.0 °F 97% 30.07 in 0.2 mi Calm Calm - N/A Fog Fog
6:53 AM 39.0 °F - 37.9 °F 96% 30.09 in 0.2 mi Calm Calm - N/A Fog Fog
7:53 AM 37.9 °F - 36.0 °F 93% 30.10 in 0.2 mi Calm Calm - N/A Fog Fog
8:53 AM 37.9 °F - 37.0 °F 97% 30.11 in 0.2 mi Calm Calm - N/A Fog Fog
9:53 AM 39.9 °F - 39.0 °F 97% 30.11 in 0.5 mi Calm Calm - N/A Fog Fog
10:29 AM 41.0 °F - 39.2 °F 93% 30.10 in 1.0 mi Calm Calm - N/A   Scattered Clouds
10:53 AM 43.0 °F 40.3 °F 39.9 °F 89% 30.12 in 0.2 mi West 4.6 mph - N/A Fog Fog
11:14 AM 42.8 °F - 41.0 °F 93% 30.11 in 1.0 mi Calm Calm - N/A   Mostly Cloudy
11:53 AM 45.0 °F - 39.0 °F 80% 30.12 in 3.0 mi Calm Calm - N/A   Haze
12:53 PM 46.0 °F - 39.9 °F 79% 30.11 in 10.0 mi Calm Calm - N/A   Clear
1:53 PM 48.9 °F - 39.0 °F 69% 30.11 in 10.0 mi WNW 3.5 mph - N/A   Clear
2:53 PM 48.9 °F - 39.0 °F 69% 30.12 in 10.0 mi Calm Calm - N/A   Clear
3:53 PM 48.9 °F - 39.9 °F 71% 30.12 in 10.0 mi Calm Calm - N/A   Clear
4:53 PM 45.0 °F - 37.9 °F 76% 30.13 in 10.0 mi Calm Calm - N/A   Clear
5:53 PM 42.1 °F - 37.9 °F 85% 30.14 in 10.0 mi Calm Calm - N/A   Clear
6:53 PM 41.0 °F - 37.9 °F 89% 30.15 in 10.0 mi Calm Calm - N/A   Clear
7:53 PM 41.0 °F - 39.9 °F 96% 30.16 in 3.0 mi Calm Calm - N/A   Clear
7:56 PM 41.0 °F - 39.2 °F 93% 30.15 in 1.5 mi Calm Calm - N/A   Clear
8:06 PM 41.0 °F - 39.2 °F 93% 30.15 in 3.0 mi Calm Calm - N/A   Clear
8:42 PM 42.8 °F 41.1 °F 41.0 °F 93% 30.14 in 2.0 mi SE 3.5 mph - N/A   Clear
8:50 PM 42.8 °F - 39.2 °F 87% 30.14 in 5.0 mi Calm Calm - N/A   Clear
8:53 PM 43.0 °F 41.3 °F 39.9 °F 89% 30.15 in 4.0 mi SE 3.5 mph - N/A   Clear
9:15 PM 41.0 °F - 39.2 °F 93% 30.14 in 1.8 mi Calm Calm - N/A   Clear
9:24 PM 39.2 °F - 39.2 °F 100% 30.14 in 0.5 mi Calm Calm - N/A Fog Fog
9:31 PM 39.2 °F - 37.4 °F 93% 30.14 in 0.2 mi Calm Calm - N/A Fog Fog
9:53 PM 39.0 °F 36.8 °F 37.0 °F 93% 30.17 in 0.2 mi NW 3.5 mph - N/A Fog Fog
10:02 PM 39.2 °F - 39.2 °F 100% 30.16 in 0.5 mi Calm Calm - N/A Fog Fog
10:29 PM 39.2 °F - 39.2 °F 100% 30.17 in 0.5 mi Calm Calm - N/A Fog Fog
10:50 PM 41.0 °F - 39.2 °F 93% 30.18 in 2.0 mi Calm Calm - N/A   Overcast
10:53 PM 41.0 °F - 39.9 °F 96% 30.19 in 2.5 mi Calm Calm - N/A   Overcast
11:02 PM 42.8 °F 41.1 °F 39.2 °F 87% 30.18 in 0.8 mi South 3.5 mph - N/A   Overcast
11:14 PM 42.8 °F 41.1 °F 41.0 °F 93% 30.18 in 0.2 mi SSW 3.5 mph - N/A Fog Fog
11:26 PM 42.8 °F - 41.0 °F 93% 30.18 in 0.8 mi Calm Calm - N/A   Mist
11:39 PM 42.8 °F - 41.0 °F 93% 30.18 in 0.2 mi Calm Calm - N/A Fog Fog
11:53 PM 43.0 °F - 41.0 °F 93% 30.19 in 0.2 mi Calm Calm - N/A Fog Fog